Regional Weather Roundup
Issued by NWS Mobile, AL

Home | Current Version | Previous Version | Text Only | Print | Product List | Glossary On
Versions: 1 2 3 4 5 6 7 8 9 10 11 12 13 14 15 16 17 18 19 20 21 22 23 24 25 26 27 28 29 30 31 32 33 34 35 36 37 38 39 40 41 42 43 44 45 46 47 48 49 50
000
ASUS44 KMOB 240413
RWRMOB
REGIONAL WEATHER ROUNDUP
NATIONAL WEATHER SERVICE MOBILE AL
1000 PM CST TUE JAN 23 2018

NOTE: "FAIR" INDICATES FEW OR NO CLOUDS BELOW 12,000 FEET WITH NO
      SIGNIFICANT WEATHER AND/OR OBSTRUCTIONS TO VISIBILITY.

  * THESE STATIONS ARE PART OF THE UNIVERSITY OF SOUTH ALABAMA
    MESONET AND ARE NOT UNDER NWS OR FAA QUALITY CONTROL.

ALZ061>064-240500-
COASTAL ALABAMA

CITY           SKY/WX    TMP DP  RH WIND       PRES   REMARKS
MOBILE REG APT FAIR      48  30  49 NW8       30.25R
BROOKLEY FIELD FAIR      47  33  58 NW12      30.25R
USA CAMPUS*    NOT AVBL
DOG RIVER*     NOT AVBL


CITY           SKY/WX    TMP DP  RH WIND       PRES   REMARKS
GULF SHORES    FAIR      46  36  69 N3        30.22R

$$

ALZ051>060-240500-
INTERIOR SOUTHWEST AND SOUTH CENTRAL ALABAMA

CITY           SKY/WX    TMP DP  RH WIND       PRES   REMARKS
GREENVILLE     FAIR      39  31  72 NW3       30.19R
EVERGREEN      FAIR      37  34  89 CALM      30.22R
ATMORE*          N/A    N/A N/A N/A NW6         N/A
ANDALUSIA/OPP  FAIR      48  32  53 NW6       30.20R
ANDALUSIA*       N/A     45  34  65 NW3       30.19R
FLORALA APT    FAIR      39  34  82 CALM      30.23R
FLORALA*         N/A     43  36  75 W2        30.95R

$$

FLZ001>006-240500-
WESTERN FLORIDA PANHANDLE

CITY           SKY/WX    TMP DP  RH WIND       PRES   REMARKS
PENSACOLA      FAIR      49  34  56 NW7       30.21R
NAS PENSACOLA  FAIR      45  37  73 N6        30.21R
MILTON         MOCLDY    47  32  56 NW5       30.22R
WHTNG S FIELD  MOCLDY    48  33  56 NW5       30.22R


CITY           SKY/WX    TMP DP  RH WIND       PRES   REMARKS
JAY*             N/A     46  32  57 NW5       30.22S
DUKE FIELD     PTCLDY    44  33  65 NW3       30.20R
CRESTVIEW      FAIR      39  34  82 CALM      30.23R
VALPARAISO     PTCLDY    47  34  59 N8        30.20R
DESTIN         FAIR      53  35  50 N9        30.20R

$$

MSZ076-079-240500-
INTERIOR SOUTHEAST MISSISSIPPI

CITY           SKY/WX    TMP DP  RH WIND       PRES   REMARKS
LEAKESVILLE*     N/A     45  30  57 NW2       30.26S
AGRICOLA*        N/A     48  28  46 CALM      30.23S

$$

MARINE OBSERVATIONS

STATION/POSITION TIME  TEMP    WIND        PRES    WAVE
                       AIR SEA DIR/SP/G            HT/PER
                 (UTC) (F)     (DEG/KT/KT) (MB)    (FT/S)
PASCAGOULA       0348   48     340/  6/  7 1023.6R
PETIT BOIS ISLND 0348   52     350/ 12/ 15 1024.1R
GRAND BAY        0245   51     350/  5     1024.0R
KATRINA CUT      0330   48     350/ 12     1023.4R
CEDAR POINT      0330   51     360/ 10     1023.0S
E DAUPHIN ISLAND 0400   52     330/ 12/ 12 1023.2R
MIDDLE BAY LIGHT 0300   53     350/  7     1022.7
USCG MOBILE BAY  0348   51 52  330/  5/  8 1024.1R
STATE DOCKS      0342   50 51              1023.8R
MEAHER PARK      0330   49     360/  1     1023.7S
WEEKS BAY        0245   43                 1023.0R
FORT MORGAN      0348   53     350/ 17/ 18   N/A
12 S ORANGE BCH  NOT AVBL
PENSACOLA BAY    0342   52 51  360/  4/  7 1023.3R
64 S DAUPHIN ISL 0350   62 66  360/ 16/ 21 1022.9F   3/ 4
67 S FORT MORGAN 0330   62                 1022.7R

$$

SELECTED LOCATIONS ACROSS THE REGION

CITY           SKY/WX    TMP DP  RH WIND       PRES   REMARKS
NEW ORLEANS    MOCLDY    51  35  54 N8        30.25R
GULFPORT       FAIR      48  30  49 N9        30.24R
PASCAGOULA AP  FAIR      45  30  55 N7        30.24R
PASCAGOULA*      N/A     52  28  40 N6          N/A
HATTIESBURG    FAIR      41  33  73 NW3       30.28R
LAUREL         FAIR      39  32  76 CALM      30.28R
MERIDIAN       FAIR      43  33  68 N7        30.27R
JACKSON        FAIR      41  33  73 N3        30.27R
MONTGOMERY     FAIR      44  31  60 W5        30.21R
TROY           FAIR      40  32  73 CALM      30.20R
ASHFORD*         N/A     45  34  65 NW3       30.19R
DOTHAN         FAIR      46  34  62 MISG      30.21R
PANAMA CITY    FAIR      44  38  79 NW6       30.19R

$$




USA.gov is the U.S. government's official web portal to all federal, state and local government web resources and services.